BAW658 EGLL-LGKF

Flight info

Callsign BAW658
Flight time 2h 52m
Altitude 35000
Route DET L6 DVR UL9 KONAN DCT TOLVU DCT EDJAR DCT LUPEN DCT TITIX DCT SUXAN DCT ENOXA DCT TIGRA UL995 KRK
Aircraft A320/M-SDE3FGHIRWY/LB1

Departure

Time 2026-04-25 15:44
Airport London Heathrow Airport (EGLL)

Arrival

Time 2026-04-25 18:36
Airport Kefallinia Airport (LGKF)
Time Latitude Longitude Altitude Speed Heading
2026-04-25 15:10 51.47361 -0.48586 88 ft 0 kts 269°
2026-04-25 15:35 51.47361 -0.48575 88 ft 4 kts 269°
2026-04-25 15:36 51.47362 -0.48499 86 ft 4 kts 245°
2026-04-25 15:36 51.47378 -0.48475 88 ft 4 kts 184°
2026-04-25 15:36 51.47400 -0.48474 86 ft 1 kts 179°
2026-04-25 15:39 51.47395 -0.48474 86 ft 5 kts 179°
2026-04-25 15:39 51.47343 -0.48474 88 ft 9 kts 179°
2026-04-25 15:39 51.47253 -0.48472 86 ft 17 kts 179°
2026-04-25 15:39 51.47131 -0.48471 87 ft 18 kts 180°
2026-04-25 15:40 51.46997 -0.48471 88 ft 18 kts 180°
2026-04-25 15:40 51.46959 -0.48470 88 ft 15 kts 180°
2026-04-25 15:40 51.46797 -0.48469 86 ft 15 kts 180°
2026-04-25 15:40 51.46685 -0.48468 86 ft 17 kts 179°
2026-04-25 15:41 51.46616 -0.48467 86 ft 3 kts 180°
2026-04-25 15:41 51.46582 -0.48467 86 ft 9 kts 180°
2026-04-25 15:41 51.46512 -0.48466 86 ft 11 kts 176°
2026-04-25 15:41 51.46480 -0.48385 87 ft 7 kts 91°
2026-04-25 15:42 51.46480 -0.48379 87 ft 0 kts 91°
2026-04-25 15:43 51.46480 -0.48378 87 ft 1 kts 91°
2026-04-25 15:43 51.46479 -0.48103 87 ft 58 kts 90°
2026-04-25 15:43 51.46483 -0.47113 88 ft 116 kts 89°
2026-04-25 15:43 51.46488 -0.45574 86 ft 159 kts 90°
2026-04-25 15:44 51.46493 -0.43690 439 ft 170 kts 89°
2026-04-25 15:44 51.46438 -0.41789 1059 ft 171 kts 106°
2026-04-25 15:44 51.45819 -0.40133 1490 ft 182 kts 129°
2026-04-25 15:44 51.45073 -0.38353 1758 ft 202 kts 121°
2026-04-25 15:45 51.44315 -0.36338 2049 ft 225 kts 120°
2026-04-25 15:45 51.43597 -0.33975 2430 ft 247 kts 105°
2026-04-25 15:45 51.43180 -0.31246 3031 ft 259 kts 103°
2026-04-25 15:45 51.43041 -0.30291 3309 ft 261 kts 103°
2026-04-25 15:46 51.42364 -0.25527 4711 ft 267 kts 102°
2026-04-25 15:46 51.41965 -0.22594 5519 ft 271 kts 101°
2026-04-25 15:46 51.41564 -0.19620 6341 ft 275 kts 101°
2026-04-25 15:46 51.41158 -0.16609 7117 ft 278 kts 101°
2026-04-25 15:47 51.40886 -0.14592 7618 ft 281 kts 101°
2026-04-25 15:47 51.40469 -0.11517 8374 ft 285 kts 102°
2026-04-25 15:47 51.40041 -0.08389 9108 ft 289 kts 102°
2026-04-25 15:47 51.39604 -0.05227 9844 ft 293 kts 102°
2026-04-25 15:48 51.39158 -0.02018 10420 ft 303 kts 102°
2026-04-25 15:48 51.38520 0.02567 10665 ft 333 kts 102°
2026-04-25 15:48 51.38173 0.05058 10755 ft 347 kts 102°
2026-04-25 15:48 51.37630 0.08950 10897 ft 367 kts 102°
2026-04-25 15:49 51.37062 0.12997 11317 ft 376 kts 102°
2026-04-25 15:49 51.36481 0.17112 11880 ft 381 kts 102°
2026-04-25 15:49 51.35895 0.21275 12452 ft 384 kts 102°
2026-04-25 15:49 51.35311 0.25421 13019 ft 388 kts 102°
2026-04-25 15:50 51.34714 0.29653 13582 ft 392 kts 102°
2026-04-25 15:50 51.34108 0.33940 14130 ft 396 kts 102°
2026-04-25 15:50 51.33494 0.38248 14632 ft 399 kts 102°
2026-04-25 15:50 51.32870 0.42597 15108 ft 403 kts 103°
2026-04-25 15:51 51.32239 0.46985 15644 ft 406 kts 103°
2026-04-25 15:51 51.31818 0.49910 15965 ft 408 kts 103°
2026-04-25 15:51 51.30956 0.55876 16614 ft 413 kts 103°
2026-04-25 15:51 51.30311 0.60308 17097 ft 416 kts 103°
2026-04-25 15:52 51.29580 0.64820 17596 ft 419 kts 105°
2026-04-25 15:52 51.28775 0.69312 18084 ft 422 kts 106°
2026-04-25 15:52 51.27920 0.73837 18564 ft 426 kts 107°
2026-04-25 15:52 51.27044 0.78373 18994 ft 429 kts 107°
2026-04-25 15:53 51.26176 0.82883 19424 ft 432 kts 107°
2026-04-25 15:53 51.25302 0.87482 19858 ft 434 kts 107°
2026-04-25 15:53 51.24433 0.92129 20295 ft 437 kts 107°
2026-04-25 15:53 51.23570 0.96794 20719 ft 440 kts 107°
2026-04-25 15:54 51.22706 1.01498 21150 ft 442 kts 107°
2026-04-25 15:54 51.21841 1.06210 21545 ft 444 kts 107°
2026-04-25 15:54 51.20965 1.10959 21929 ft 447 kts 107°
2026-04-25 15:54 51.20079 1.15730 22298 ft 450 kts 107°
2026-04-25 15:55 51.19189 1.20473 22652 ft 453 kts 108°
2026-04-25 15:55 51.18278 1.25288 22995 ft 455 kts 108°
2026-04-25 15:55 51.17358 1.30134 23343 ft 458 kts 108°
2026-04-25 15:55 51.16502 1.35041 23684 ft 461 kts 103°
2026-04-25 15:56 51.16055 1.40139 23979 ft 465 kts 95°
2026-04-25 15:56 51.15814 1.45301 24300 ft 466 kts 95°
2026-04-25 15:56 51.15572 1.50440 24692 ft 465 kts 95°
2026-04-25 15:56 51.15326 1.55592 25031 ft 466 kts 95°
2026-04-25 15:57 51.15080 1.60687 25374 ft 467 kts 95°
2026-04-25 15:57 51.14825 1.65858 25824 ft 465 kts 95°
2026-04-25 15:57 51.14568 1.70983 26267 ft 464 kts 95°
2026-04-25 15:57 51.14307 1.76106 26718 ft 463 kts 95°
2026-04-25 15:58 51.14047 1.81206 27157 ft 461 kts 95°
2026-04-25 15:58 51.13786 1.86299 27598 ft 460 kts 95°
2026-04-25 15:58 51.13529 1.91314 28042 ft 460 kts 96°
2026-04-25 15:58 51.13044 1.96366 28333 ft 462 kts 105°
2026-04-25 15:59 51.12061 2.01227 28674 ft 461 kts 114°
2026-04-25 15:59 51.10622 2.05778 29069 ft 459 kts 123°
2026-04-25 15:59 51.08869 2.10018 29474 ft 458 kts 126°
2026-04-25 15:59 51.07098 2.14229 29908 ft 458 kts 126°
2026-04-25 16:00 51.05928 2.17013 30190 ft 457 kts 126°
2026-04-25 16:00 51.04753 2.19810 30453 ft 457 kts 126°
2026-04-25 16:00 51.01796 2.26830 31094 ft 456 kts 126°
2026-04-25 16:00 51.00030 2.31002 31480 ft 455 kts 126°
2026-04-25 16:01 50.98282 2.35121 31873 ft 454 kts 126°
2026-04-25 16:01 50.96519 2.39273 32238 ft 453 kts 126°
2026-04-25 16:01 50.94755 2.43421 32594 ft 453 kts 126°
2026-04-25 16:01 50.92991 2.47560 32970 ft 453 kts 126°
2026-04-25 16:02 50.91227 2.51697 33365 ft 452 kts 126°
2026-04-25 16:02 50.89467 2.55820 33768 ft 451 kts 126°
2026-04-25 16:02 50.87715 2.59920 34159 ft 449 kts 126°
2026-04-25 16:02 50.85963 2.64017 34479 ft 448 kts 126°
2026-04-25 16:03 50.84210 2.68106 34784 ft 448 kts 126°
2026-04-25 16:03 50.82457 2.72187 35073 ft 447 kts 127°
2026-04-25 16:03 50.80705 2.76256 35185 ft 449 kts 127°
2026-04-25 16:03 50.78937 2.80358 35197 ft 455 kts 127°
2026-04-25 16:04 50.75309 2.88752 35193 ft 467 kts 126°
2026-04-25 16:04 50.71626 2.97245 35190 ft 469 kts 126°
2026-04-25 16:05 50.67956 3.05673 35185 ft 469 kts 126°
2026-04-25 16:06 50.62396 3.18393 35193 ft 469 kts 126°
2026-04-25 16:06 50.58689 3.26861 35183 ft 470 kts 126°
2026-04-25 16:07 50.54971 3.35322 35182 ft 470 kts 127°
2026-04-25 16:07 50.51238 3.43777 35180 ft 471 kts 127°
2026-04-25 16:08 50.47491 3.52221 35181 ft 471 kts 127°
2026-04-25 16:08 50.43738 3.60655 35182 ft 471 kts 127°
2026-04-25 16:09 50.39982 3.69086 35182 ft 471 kts 127°
2026-04-25 16:09 50.36221 3.77515 35172 ft 472 kts 127°
2026-04-25 16:10 50.32469 3.85891 35167 ft 473 kts 127°
2026-04-25 16:10 50.28681 3.94309 35168 ft 473 kts 127°
2026-04-25 16:11 50.24883 4.02722 35172 ft 473 kts 127°
2026-04-25 16:11 50.21083 4.11124 35174 ft 474 kts 127°
2026-04-25 16:12 50.17270 4.19510 35177 ft 474 kts 127°
2026-04-25 16:12 50.13449 4.27882 35172 ft 474 kts 127°
2026-04-25 16:13 50.09627 4.36244 35164 ft 473 kts 127°
2026-04-25 16:13 50.05799 4.44592 35160 ft 473 kts 127°
2026-04-25 16:14 50.01972 4.52916 35167 ft 473 kts 127°
2026-04-25 16:14 49.98141 4.61220 35163 ft 473 kts 127°
2026-04-25 16:15 49.94293 4.69517 35158 ft 473 kts 127°
2026-04-25 16:15 49.90464 4.77772 35152 ft 474 kts 127°
2026-04-25 16:16 49.86607 4.86060 35138 ft 474 kts 127°
2026-04-25 16:16 49.82743 4.94336 35145 ft 474 kts 128°
2026-04-25 16:17 49.78875 5.02594 35151 ft 474 kts 127°
2026-04-25 16:17 49.74988 5.10839 35140 ft 474 kts 127°
2026-04-25 16:18 49.71101 5.19080 35138 ft 475 kts 127°
2026-04-25 16:18 49.67201 5.27328 35134 ft 475 kts 127°
2026-04-25 16:19 49.63295 5.35558 35130 ft 475 kts 128°
2026-04-25 16:19 49.59426 5.43824 35126 ft 476 kts 126°
2026-04-25 16:20 49.53777 5.56370 35122 ft 476 kts 126°
2026-04-25 16:21 49.48072 5.68910 35123 ft 476 kts 126°
2026-04-25 16:21 49.44240 5.77228 35121 ft 477 kts 126°
2026-04-25 16:22 49.40430 5.85487 35121 ft 477 kts 126°
2026-04-25 16:22 49.36488 5.93724 35095 ft 477 kts 128°
2026-04-25 16:23 49.32406 6.01780 35114 ft 477 kts 129°
2026-04-25 16:23 49.28338 6.09746 35114 ft 477 kts 128°
2026-04-25 16:24 49.24275 6.17792 35119 ft 477 kts 128°
2026-04-25 16:24 49.20223 6.25853 35133 ft 478 kts 128°
2026-04-25 16:25 49.16165 6.33866 35126 ft 479 kts 128°
2026-04-25 16:25 49.12075 6.41908 35112 ft 479 kts 128°
2026-04-25 16:26 49.07975 6.49960 35120 ft 479 kts 128°
2026-04-25 16:26 49.03874 6.57970 35112 ft 479 kts 128°
2026-04-25 16:27 48.99795 6.65922 35118 ft 479 kts 128°
2026-04-25 16:27 48.95686 6.73925 35114 ft 479 kts 128°
2026-04-25 16:28 48.91569 6.81904 35119 ft 480 kts 128°
2026-04-25 16:28 48.87433 6.89889 35111 ft 480 kts 128°
2026-04-25 16:29 48.83327 6.97811 35112 ft 479 kts 128°
2026-04-25 16:29 48.79196 7.05756 35130 ft 479 kts 128°
2026-04-25 16:30 48.75057 7.13681 35125 ft 478 kts 128°
2026-04-25 16:30 48.70941 7.21533 35123 ft 478 kts 128°
2026-04-25 16:31 48.66795 7.29422 35123 ft 477 kts 128°
2026-04-25 16:31 48.62660 7.37298 35114 ft 477 kts 128°
2026-04-25 16:32 48.59224 7.43817 35131 ft 477 kts 128°
2026-04-25 16:32 48.54398 7.52916 35106 ft 476 kts 128°
2026-04-25 16:33 48.50945 7.59402 35107 ft 476 kts 128°
2026-04-25 16:33 48.46795 7.67188 35100 ft 476 kts 128°
2026-04-25 16:34 48.42381 7.74609 35093 ft 475 kts 140°
2026-04-25 16:34 48.37205 7.80695 35090 ft 475 kts 143°
2026-04-25 16:35 48.31966 7.86779 35091 ft 475 kts 143°
2026-04-25 16:35 48.26718 7.92857 35096 ft 475 kts 143°
2026-04-25 16:36 48.21513 7.98868 35099 ft 475 kts 143°
2026-04-25 16:36 48.16262 8.04917 35108 ft 475 kts 143°
2026-04-25 16:37 48.11018 8.10942 35101 ft 475 kts 143°
2026-04-25 16:37 48.05766 8.16964 35109 ft 475 kts 143°
2026-04-25 16:38 48.00546 8.22930 35120 ft 475 kts 143°
2026-04-25 16:38 47.95294 8.28926 35119 ft 475 kts 143°
2026-04-25 16:39 47.90026 8.34910 35096 ft 475 kts 143°
2026-04-25 16:39 47.84955 8.41157 35098 ft 476 kts 133°
2026-04-25 16:40 47.80537 8.48509 35105 ft 476 kts 131°
2026-04-25 16:40 47.76118 8.55864 35106 ft 476 kts 132°
2026-04-25 16:41 47.71695 8.63196 35093 ft 476 kts 132°
2026-04-25 16:41 47.65075 8.74128 35089 ft 476 kts 132°
2026-04-25 16:42 47.60627 8.81441 35080 ft 476 kts 132°
2026-04-25 16:42 47.56183 8.88750 35095 ft 477 kts 132°
2026-04-25 16:43 47.51763 8.96001 35091 ft 477 kts 132°
2026-04-25 16:43 47.47298 9.03301 35089 ft 477 kts 132°
2026-04-25 16:44 47.42832 9.10570 35085 ft 477 kts 132°
2026-04-25 16:44 47.38386 9.17796 35091 ft 478 kts 132°
2026-04-25 16:45 47.33933 9.25027 35096 ft 478 kts 132°
2026-04-25 16:45 47.29445 9.32273 35095 ft 478 kts 132°
2026-04-25 16:46 47.24944 9.39510 35085 ft 478 kts 132°
2026-04-25 16:46 47.21202 9.45539 35088 ft 479 kts 132°
2026-04-25 16:47 47.15937 9.53997 35094 ft 479 kts 132°
2026-04-25 16:47 47.11442 9.61168 35108 ft 480 kts 132°
2026-04-25 16:48 47.06910 9.68387 35110 ft 481 kts 133°
2026-04-25 16:48 47.02378 9.75601 35118 ft 481 kts 132°
2026-04-25 16:49 46.97862 9.82769 35119 ft 481 kts 133°
2026-04-25 16:49 46.93316 9.89961 35126 ft 481 kts 133°
2026-04-25 16:50 46.88741 9.97174 35115 ft 483 kts 133°
2026-04-25 16:50 46.84182 10.04346 35115 ft 484 kts 133°
2026-04-25 16:51 46.79562 10.11599 35123 ft 485 kts 133°
2026-04-25 16:51 46.75733 10.17584 35117 ft 485 kts 133°
2026-04-25 16:52 46.70372 10.25942 35121 ft 485 kts 133°
2026-04-25 16:52 46.65749 10.33137 35089 ft 486 kts 133°
2026-04-25 16:53 46.58831 10.43874 35077 ft 487 kts 133°
2026-04-25 16:54 46.54184 10.51056 35081 ft 487 kts 133°
2026-04-25 16:54 46.49517 10.58216 35084 ft 487 kts 134°
2026-04-25 16:55 46.44881 10.65289 35060 ft 487 kts 135°
2026-04-25 16:55 46.40206 10.72411 35071 ft 488 kts 135°
2026-04-25 16:56 46.35525 10.79548 35089 ft 488 kts 135°
2026-04-25 16:56 46.30823 10.86678 35119 ft 488 kts 135°
2026-04-25 16:57 46.26157 10.93726 35142 ft 487 kts 136°
2026-04-25 16:57 46.21475 11.00787 35144 ft 485 kts 136°
2026-04-25 16:58 46.16798 11.07823 35133 ft 485 kts 136°
2026-04-25 16:58 46.12122 11.14841 35110 ft 485 kts 136°
2026-04-25 16:59 46.07449 11.21838 35085 ft 484 kts 137°
2026-04-25 16:59 46.02805 11.28767 35039 ft 482 kts 137°
2026-04-25 17:00 45.98147 11.35704 35020 ft 481 kts 137°
2026-04-25 17:00 45.93483 11.42624 35023 ft 481 kts 137°
2026-04-25 17:01 45.88810 11.49541 35027 ft 482 kts 137°
2026-04-25 17:01 45.84163 11.56407 35040 ft 482 kts 137°
2026-04-25 17:02 45.79493 11.63304 35027 ft 482 kts 137°
2026-04-25 17:02 45.74813 11.70184 35006 ft 482 kts 137°
2026-04-25 17:03 45.70116 11.77063 34998 ft 482 kts 137°
2026-04-25 17:03 45.65415 11.83935 35013 ft 483 kts 137°
2026-04-25 17:04 45.60741 11.90754 35020 ft 482 kts 138°
2026-04-25 17:04 45.56044 11.97588 35020 ft 482 kts 138°
2026-04-25 17:05 45.51341 12.04416 35003 ft 481 kts 137°
2026-04-25 17:05 45.44311 12.14589 35019 ft 481 kts 138°
2026-04-25 17:06 45.39613 12.21368 35022 ft 480 kts 138°
2026-04-25 17:06 45.34912 12.28123 35023 ft 480 kts 138°
2026-04-25 17:07 45.30212 12.34859 35021 ft 479 kts 138°
2026-04-25 17:07 45.25547 12.41543 35015 ft 479 kts 138°
2026-04-25 17:08 45.20842 12.48262 35026 ft 478 kts 138°
2026-04-25 17:08 45.16150 12.54943 35031 ft 478 kts 138°
2026-04-25 17:09 45.11450 12.61614 35031 ft 478 kts 138°
2026-04-25 17:09 45.06756 12.68277 35030 ft 478 kts 138°
2026-04-25 17:10 45.02089 12.74884 35023 ft 477 kts 138°
2026-04-25 17:10 44.97388 12.81505 35029 ft 476 kts 138°
2026-04-25 17:11 44.92687 12.88116 35033 ft 476 kts 138°
2026-04-25 17:11 44.87992 12.94708 35037 ft 476 kts 138°
2026-04-25 17:12 44.83321 13.01246 35024 ft 476 kts 138°
2026-04-25 17:12 44.78620 13.07810 35035 ft 475 kts 138°
2026-04-25 17:13 44.75510 13.12146 35037 ft 475 kts 138°
2026-04-25 17:13 44.69233 13.20886 35039 ft 474 kts 138°
2026-04-25 17:14 44.64563 13.27374 35035 ft 474 kts 138°
2026-04-25 17:14 44.59859 13.33876 35025 ft 474 kts 138°
2026-04-25 17:15 44.55157 13.40353 35036 ft 473 kts 138°
2026-04-25 17:15 44.50471 13.46806 35042 ft 472 kts 138°
2026-04-25 17:16 44.45817 13.53195 35041 ft 471 kts 138°
2026-04-25 17:16 44.41098 13.59650 35040 ft 471 kts 138°
2026-04-25 17:17 44.39546 13.61770 35044 ft 471 kts 138°
2026-04-25 17:17 44.31729 13.72447 35047 ft 470 kts 138°
2026-04-25 17:18 44.27075 13.78785 35049 ft 470 kts 138°
2026-04-25 17:18 44.22389 13.85143 35048 ft 469 kts 138°
2026-04-25 17:19 44.17701 13.91487 35046 ft 469 kts 138°
2026-04-25 17:19 44.13019 13.97808 35048 ft 468 kts 138°
2026-04-25 17:20 44.09132 14.03046 35051 ft 468 kts 138°
2026-04-25 17:20 44.04457 14.09343 35054 ft 467 kts 138°
2026-04-25 17:21 43.99778 14.15628 35050 ft 467 kts 138°
2026-04-25 17:21 43.95094 14.21878 35053 ft 467 kts 138°
2026-04-25 17:22 43.91208 14.27067 35055 ft 467 kts 138°
2026-04-25 17:22 43.85764 14.34331 35055 ft 466 kts 138°
2026-04-25 17:23 43.81086 14.40556 35054 ft 466 kts 138°
2026-04-25 17:23 43.76404 14.46770 35053 ft 466 kts 138°
2026-04-25 17:24 43.71720 14.52978 35052 ft 466 kts 138°
2026-04-25 17:24 43.67029 14.59161 35046 ft 466 kts 138°
2026-04-25 17:25 43.62337 14.65333 35052 ft 465 kts 138°
2026-04-25 17:25 43.57661 14.71498 35053 ft 465 kts 138°
2026-04-25 17:26 43.52975 14.77654 35056 ft 465 kts 138°
2026-04-25 17:26 43.48310 14.83763 35058 ft 465 kts 139°
2026-04-25 17:27 43.43619 14.89890 35049 ft 464 kts 138°
2026-04-25 17:27 43.39725 14.94964 35061 ft 464 kts 138°
2026-04-25 17:28 43.34234 15.02082 35060 ft 463 kts 138°
2026-04-25 17:28 43.29573 15.08134 35057 ft 463 kts 138°
2026-04-25 17:29 43.24883 15.14208 35057 ft 463 kts 139°
2026-04-25 17:29 43.20184 15.20268 35055 ft 463 kts 138°
2026-04-25 17:30 43.15493 15.26308 35056 ft 462 kts 138°
2026-04-25 17:30 43.10808 15.32339 35056 ft 462 kts 138°
2026-04-25 17:31 43.06148 15.38319 35056 ft 462 kts 138°
2026-04-25 17:31 43.01460 15.44321 35052 ft 461 kts 138°
2026-04-25 17:32 42.96771 15.50317 35053 ft 461 kts 139°
2026-04-25 17:32 42.92108 15.56263 35056 ft 461 kts 138°
2026-04-25 17:33 42.87411 15.62236 35057 ft 460 kts 138°
2026-04-25 17:33 42.82721 15.68180 35054 ft 460 kts 138°
2026-04-25 17:34 42.78034 15.74110 35054 ft 460 kts 139°
2026-04-25 17:34 42.73341 15.80036 35053 ft 460 kts 139°
2026-04-25 17:35 42.68675 15.85913 35053 ft 459 kts 138°
2026-04-25 17:35 42.63989 15.91816 35056 ft 459 kts 138°
2026-04-25 17:36 42.59302 15.97704 35054 ft 459 kts 138°
2026-04-25 17:36 42.54614 16.03571 35061 ft 459 kts 138°
2026-04-25 17:37 42.49941 16.09412 35057 ft 459 kts 138°
2026-04-25 17:37 42.45244 16.15276 35051 ft 458 kts 138°
2026-04-25 17:38 42.41313 16.20172 35061 ft 458 kts 138°
2026-04-25 17:38 42.35860 16.26942 35056 ft 458 kts 138°
2026-04-25 17:39 42.31153 16.32773 35057 ft 457 kts 138°
2026-04-25 17:39 42.26493 16.38540 35054 ft 457 kts 138°
2026-04-25 17:40 42.21786 16.44358 35052 ft 457 kts 138°
2026-04-25 17:40 42.17117 16.50109 35056 ft 456 kts 138°
2026-04-25 17:41 42.12419 16.55873 35059 ft 456 kts 138°
2026-04-25 17:41 42.07724 16.61626 35058 ft 456 kts 138°
2026-04-25 17:42 42.03037 16.67365 35055 ft 456 kts 138°
2026-04-25 17:42 41.98333 16.73106 35053 ft 456 kts 137°
2026-04-25 17:43 41.93665 16.78798 35060 ft 455 kts 137°
2026-04-25 17:43 41.88954 16.84528 35061 ft 455 kts 137°
2026-04-25 17:44 41.84260 16.90232 35058 ft 455 kts 137°
2026-04-25 17:44 41.79562 16.95926 35058 ft 455 kts 137°
2026-04-25 17:45 41.76443 16.99683 35057 ft 455 kts 138°
2026-04-25 17:45 41.70171 17.07223 35056 ft 454 kts 137°
2026-04-25 17:46 41.65475 17.12884 35055 ft 454 kts 137°
2026-04-25 17:46 41.60779 17.18535 35057 ft 454 kts 137°
2026-04-25 17:47 41.56099 17.24140 35052 ft 454 kts 137°
2026-04-25 17:47 41.51390 17.29772 35056 ft 454 kts 137°
2026-04-25 17:48 41.44320 17.38194 35051 ft 454 kts 137°
2026-04-25 17:49 41.39608 17.43811 35053 ft 454 kts 137°
2026-04-25 17:49 41.34914 17.49398 35051 ft 454 kts 137°
2026-04-25 17:50 41.30202 17.54995 35048 ft 454 kts 137°
2026-04-25 17:50 41.25480 17.60573 35049 ft 454 kts 137°
2026-04-25 17:51 41.20751 17.66149 35059 ft 454 kts 137°
2026-04-25 17:51 41.16040 17.71738 35053 ft 453 kts 137°
2026-04-25 17:52 41.11373 17.77289 35057 ft 453 kts 136°
2026-04-25 17:52 41.06672 17.82868 35054 ft 453 kts 136°
2026-04-25 17:53 41.01964 17.88448 35049 ft 453 kts 137°
2026-04-25 17:53 40.97245 17.94007 35055 ft 453 kts 136°
2026-04-25 17:54 40.92535 17.99548 35055 ft 453 kts 136°
2026-04-25 17:54 40.87826 18.05093 35052 ft 452 kts 136°
2026-04-25 17:55 40.83153 18.10597 35046 ft 452 kts 136°
2026-04-25 17:55 40.78442 18.16121 35045 ft 452 kts 136°
2026-04-25 17:56 40.73734 18.21621 35040 ft 452 kts 137°
2026-04-25 17:56 40.69022 18.27120 35046 ft 452 kts 136°
2026-04-25 17:57 40.64340 18.32576 35048 ft 451 kts 136°
2026-04-25 17:57 40.59632 18.38046 35048 ft 451 kts 136°
2026-04-25 17:58 40.54916 18.43503 35053 ft 451 kts 136°
2026-04-25 17:58 40.50204 18.48948 35043 ft 451 kts 136°
2026-04-25 17:59 40.45526 18.54354 35044 ft 451 kts 136°
2026-04-25 17:59 40.40811 18.59795 35043 ft 450 kts 136°
2026-04-25 18:00 40.36094 18.65222 35044 ft 450 kts 136°
2026-04-25 18:00 40.31409 18.70603 35044 ft 450 kts 136°
2026-04-25 18:01 40.26690 18.76008 35044 ft 450 kts 136°
2026-04-25 18:01 40.21973 18.81411 35050 ft 450 kts 136°
2026-04-25 18:02 40.17257 18.86818 35049 ft 450 kts 136°
2026-04-25 18:02 40.12566 18.92171 35046 ft 450 kts 136°
2026-04-25 18:03 40.07834 18.97547 35044 ft 450 kts 136°
2026-04-25 18:03 40.03667 19.03546 35042 ft 445 kts 123°
2026-04-25 18:04 39.99993 19.10056 35037 ft 445 kts 123°
2026-04-25 18:04 39.96351 19.16528 35040 ft 445 kts 123°
2026-04-25 18:05 39.92683 19.23033 35041 ft 445 kts 123°
2026-04-25 18:05 39.89007 19.29521 35029 ft 445 kts 123°
2026-04-25 18:06 39.85335 19.35997 35023 ft 444 kts 123°
2026-04-25 18:06 39.81651 19.42471 35011 ft 444 kts 123°
2026-04-25 18:07 39.77971 19.48941 35025 ft 444 kts 123°
2026-04-25 18:07 39.74307 19.55353 35012 ft 444 kts 123°
2026-04-25 18:08 39.71220 19.60747 35005 ft 444 kts 123°
2026-04-25 18:08 39.66925 19.68233 34997 ft 444 kts 123°
2026-04-25 18:09 39.63854 19.73577 34986 ft 444 kts 123°
2026-04-25 18:09 39.60161 19.80010 35004 ft 444 kts 123°
2026-04-25 18:10 39.56463 19.86431 34997 ft 444 kts 123°
2026-04-25 18:10 39.52758 19.92832 34994 ft 443 kts 123°
2026-04-25 18:11 39.49053 19.99213 34991 ft 443 kts 124°
2026-04-25 18:11 39.46949 20.02165 34989 ft 448 kts 135°
2026-04-25 18:11 39.44437 20.04589 34988 ft 453 kts 146°
2026-04-25 18:12 39.38529 20.07449 34983 ft 464 kts 167°
2026-04-25 18:12 39.32051 20.08000 34996 ft 467 kts 174°
2026-04-25 18:13 39.25541 20.08377 34995 ft 468 kts 174°
2026-04-25 18:13 39.19030 20.08760 35011 ft 469 kts 174°
2026-04-25 18:14 39.09277 20.09318 35019 ft 469 kts 174°
2026-04-25 18:14 39.02743 20.09699 35017 ft 470 kts 174°
2026-04-25 18:15 38.96198 20.10080 35020 ft 470 kts 174°
2026-04-25 18:15 38.89704 20.10457 35022 ft 470 kts 174°
2026-04-25 18:16 38.83162 20.10825 35036 ft 470 kts 174°
2026-04-25 18:17 38.73381 20.11392 34793 ft 460 kts 174°
2026-04-25 18:17 38.70167 20.11575 33305 ft 467 kts 173°
2026-04-25 18:17 38.66889 20.11766 31905 ft 473 kts 174°
2026-04-25 18:17 38.63602 20.11955 31259 ft 471 kts 174°
2026-04-25 18:18 38.60351 20.12141 30319 ft 476 kts 174°
2026-04-25 18:18 38.57014 20.12329 29182 ft 482 kts 174°
2026-04-25 18:18 38.53642 20.12517 28046 ft 486 kts 174°
2026-04-25 18:18 38.50238 20.12706 26898 ft 490 kts 174°
2026-04-25 18:19 38.46809 20.12880 25638 ft 497 kts 177°
2026-04-25 18:19 38.43331 20.12439 24362 ft 507 kts 190°
2026-04-25 18:19 38.40011 20.11033 23275 ft 511 kts 204°
2026-04-25 18:19 38.36980 20.08743 22559 ft 502 kts 215°
2026-04-25 18:20 38.34112 20.06257 21613 ft 496 kts 211°
2026-04-25 18:20 38.31133 20.04141 20496 ft 483 kts 206°
2026-04-25 18:20 38.28129 20.02328 19272 ft 470 kts 202°
2026-04-25 18:20 38.25151 20.00812 18435 ft 450 kts 199°
2026-04-25 18:21 38.22227 19.99599 17498 ft 434 kts 194°
2026-04-25 18:21 38.19345 19.98699 16671 ft 419 kts 190°
2026-04-25 18:21 38.16482 19.98098 15866 ft 417 kts 185°
2026-04-25 18:21 38.13597 19.97764 15059 ft 410 kts 181°
2026-04-25 18:22 38.10797 19.97683 14316 ft 395 kts 177°
2026-04-25 18:22 38.09002 19.97758 13847 ft 384 kts 175°
2026-04-25 18:22 38.05565 19.98192 12956 ft 363 kts 167°
2026-04-25 18:22 38.03238 19.99171 12372 ft 345 kts 150°
2026-04-25 18:23 38.01321 20.00881 11744 ft 331 kts 133°
2026-04-25 18:23 37.99919 20.03113 11253 ft 314 kts 117°
2026-04-25 18:23 37.99089 20.05555 11181 ft 295 kts 103°
2026-04-25 18:23 37.98745 20.08091 11088 ft 290 kts 90°
2026-04-25 18:24 37.98699 20.10642 10943 ft 288 kts 83°
2026-04-25 18:24 37.99235 20.13040 10801 ft 282 kts 61°
2026-04-25 18:24 38.00115 20.15237 10701 ft 275 kts 64°
2026-04-25 18:24 38.00839 20.17438 10585 ft 267 kts 67°
2026-04-25 18:25 38.01492 20.19608 10464 ft 260 kts 68°
2026-04-25 18:25 38.02128 20.21740 10343 ft 257 kts 68°
2026-04-25 18:25 38.02763 20.23830 10231 ft 258 kts 68°
2026-04-25 18:25 38.03128 20.26051 10103 ft 259 kts 88°
2026-04-25 18:26 38.02826 20.28302 9839 ft 261 kts 109°
2026-04-25 18:26 38.01877 20.30251 9415 ft 259 kts 131°
2026-04-25 18:26 38.00484 20.31664 9067 ft 256 kts 141°
2026-04-25 18:26 37.99088 20.33078 8706 ft 257 kts 135°
2026-04-25 18:27 37.97808 20.34664 8359 ft 257 kts 130°
2026-04-25 18:27 37.96654 20.36404 8024 ft 258 kts 124°
2026-04-25 18:27 37.95649 20.38252 7687 ft 250 kts 118°
2026-04-25 18:27 37.94820 20.40141 7359 ft 240 kts 113°
2026-04-25 18:28 37.94159 20.42047 7031 ft 231 kts 108°
2026-04-25 18:28 37.93654 20.43940 6722 ft 223 kts 103°
2026-04-25 18:28 37.93289 20.45799 6452 ft 212 kts 99°
2026-04-25 18:29 37.92942 20.49327 5869 ft 199 kts 90°
2026-04-25 18:29 37.92930 20.51070 5598 ft 197 kts 86°
2026-04-25 18:30 37.93465 20.56093 4814 ft 184 kts 74°
2026-04-25 18:30 37.93808 20.57627 4566 ft 178 kts 69°
2026-04-25 18:30 37.94224 20.59083 4318 ft 173 kts 65°
2026-04-25 18:30 37.94700 20.60464 4088 ft 169 kts 62°
2026-04-25 18:31 37.95402 20.61613 3849 ft 163 kts 37°
2026-04-25 18:31 37.96397 20.62252 3630 ft 160 kts 12°
2026-04-25 18:31 37.97489 20.62306 3384 ft 157 kts 348°
2026-04-25 18:31 37.98493 20.61793 3162 ft 157 kts 326°
2026-04-25 18:32 37.99388 20.60997 2924 ft 157 kts 325°
2026-04-25 18:32 38.00275 20.60213 2717 ft 158 kts 325°
2026-04-25 18:32 38.01171 20.59424 2498 ft 154 kts 325°
2026-04-25 18:32 38.02046 20.58652 2277 ft 151 kts 325°
2026-04-25 18:33 38.02896 20.57903 2046 ft 145 kts 325°
2026-04-25 18:33 38.03711 20.57184 1850 ft 141 kts 325°
2026-04-25 18:33 38.04507 20.56479 1670 ft 139 kts 324°
2026-04-25 18:33 38.05296 20.55776 1486 ft 138 kts 325°
2026-04-25 18:34 38.06078 20.55076 1322 ft 138 kts 324°
2026-04-25 18:34 38.06865 20.54375 1133 ft 138 kts 325°
2026-04-25 18:34 38.07638 20.53677 948 ft 138 kts 324°
2026-04-25 18:34 38.08427 20.52986 735 ft 138 kts 325°
2026-04-25 18:35 38.09247 20.52332 547 ft 140 kts 327°
2026-04-25 18:35 38.10083 20.51687 387 ft 141 kts 325°
2026-04-25 18:35 38.10884 20.50984 207 ft 139 kts 323°
2026-04-25 18:35 38.11687 20.50316 54 ft 132 kts 325°
2026-04-25 18:36 38.12234 20.49852 54 ft 51 kts 326°
2026-04-25 18:36 38.12441 20.49678 54 ft 34 kts 326°
2026-04-25 18:36 38.12636 20.49513 51 ft 34 kts 326°
2026-04-25 18:36 38.12825 20.49354 50 ft 25 kts 324°
2026-04-25 18:37 38.12872 20.49265 49 ft 10 kts 23°
2026-04-25 18:37 38.12842 20.49341 50 ft 15 kts 147°
2026-04-25 18:37 38.12740 20.49426 51 ft 19 kts 146°
2026-04-25 18:37 38.12614 20.49533 52 ft 23 kts 146°
2026-04-25 18:38 38.12461 20.49663 52 ft 28 kts 146°
2026-04-25 18:38 38.12292 20.49804 53 ft 30 kts 146°
2026-04-25 18:38 38.12110 20.49960 54 ft 33 kts 146°
2026-04-25 18:38 38.11930 20.50113 53 ft 23 kts 146°
2026-04-25 18:39 38.11894 20.50247 56 ft 14 kts 83°
2026-04-25 18:39 38.11870 20.50329 50 ft 5 kts 147°
2026-04-25 18:39 38.11863 20.50336 54 ft 0 kts 137°
2026-04-25 18:39 38.11856 20.50341 54 ft 3 kts 148°
2026-04-25 18:40 38.11838 20.50353 50 ft 6 kts 149°
2026-04-25 18:40 38.11839 20.50418 55 ft 7 kts 57°
2026-04-25 18:40 38.11855 20.50447 56 ft 2 kts 56°
2026-04-25 18:40 38.11856 20.50450 51 ft 0 kts 56°